Location: ?????????
(41.1143°N, 22.7905°E)
Time: 01:16:28
(UTC+00:00)

Cosmos 1076 Rocket - Pass Details

Date: 13 December 2025
Orbit: 582 x 603 km, 82.5° (Epoch: 17 January)

Event Time Altitude Azimuth Distance (km) Brightness Sun altitude
Rises 16:21:17 0° 351° (N) 2,856 6.9 -14.7°
Reaches altitude 10° 16:23:30 10° 351° (N) 1,951 6.0 -15.1°
Maximum altitude 16:27:49 84° 264° (W) 612 3.5 -15.8°
Drops below altitude 10° 16:32:07 10° 176° (S) 1,941 6.3 -16.6°
Sets 16:34:19 0° 176° (S) 2,839 7.1 -17.0°
